period_start,C,m1,H,J0,J1,J2,J3,J4,J5,JA,JB,JC,JD,JJ,JK,JN,#
2016-11-23 00:02:30,0.02,0.38,0.00,21.89,26.77,30.42,14.81,49.03,1023.94,2030.00,3349.99,3044.01,3436.31,599.89,602.53,9.60,0000 0000 0000 0000 000000
2016-11-23 00:07:31,0.02,0.38,0.00,21.89,26.77,30.43,14.67,48.87,1023.94,2030.00,3349.16,3043.81,3435.97,599.81,602.35,9.65,0000 0000 0000 0000 000000
2016-11-23 00:12:32,0.04,0.39,0.00,21.92,26.77,30.41,14.79,49.04,1023.94,2030.00,3348.57,3043.06,3435.27,600.03,602.47,9.70,0000 0000 0000 0000 000000
2016-11-23 00:17:34,0.01,0.39,0.00,21.93,26.78,30.39,14.90,49.08,1023.94,2030.01,3347.89,3042.85,3434.78,600.22,602.69,9.75,0000 0000 0000 0000 000000
2016-11-23 00:22:35,0.04,0.39,0.00,21.93,26.79,30.39,14.74,48.89,1023.94,2030.01,3347.06,3042.09,3434.04,600.01,602.53,9.80,0000 0000 0000 0000 000000
2016-11-23 00:27:36,0.03,0.39,0.00,21.93,26.80,30.39,14.76,48.92,1023.94,2030.00,3346.23,3041.77,3433.47,600.00,602.54,9.85,0000 0000 0000 0000 000000
2016-11-23 00:32:37,0.06,0.39,0.00,21.92,26.80,30.41,14.75,48.85,1023.94,2030.00,3344.71,3040.88,3432.27,600.09,602.67,9.90,0000 0000 0000 0000 000000
2016-11-23 00:37:39,0.05,0.40,0.00,21.93,26.80,30.41,14.70,48.86,1023.94,2030.00,3343.49,3040.10,3431.48,600.20,602.82,9.95,0000 0000 0000 0000 000000
2016-11-23 00:42:40,0.03,0.40,0.00,21.95,26.80,30.39,14.75,48.93,1023.94,2030.00,3342.50,3039.82,3430.78,600.02,602.50,10.00,0000 0000 0000 0000 000000
2016-11-23 00:47:41,0.03,0.40,0.00,21.95,26.80,30.40,14.74,49.06,1023.94,2030.00,3341.78,3039.09,3430.05,599.74,602.31,10.05,0000 0000 0000 0000 000000
2016-11-23 00:52:42,0.03,0.40,0.00,21.96,26.80,30.42,14.74,49.07,1023.94,2030.00,3341.00,3038.73,3429.60,600.15,602.60,10.10,0000 0000 0000 0000 000000
2016-11-23 00:57:43,0.03,0.40,0.00,21.96,26.80,30.42,14.76,49.07,1023.94,2030.00,3340.47,3038.06,3428.99,600.31,602.70,10.15,0000 0000 0000 0000 000000
2016-11-23 01:02:44,0.01,0.40,0.00,21.97,26.80,30.41,14.71,48.95,1023.94,2030.00,3339.89,3037.98,3428.19,600.11,602.56,10.20,0000 0000 0000 0000 000000
2016-11-23 01:07:45,0.02,0.41,0.00,21.96,26.80,30.41,14.73,48.92,1023.94,2030.00,3339.08,3037.54,3427.96,599.73,602.14,10.25,0000 0000 0000 0000 000000
2016-11-23 01:12:47,0.03,0.41,0.00,21.99,26.80,30.40,14.72,48.79,1023.94,2030.00,3338.41,3037.02,3427.19,600.30,602.69,10.30,0000 0000 0000 0000 000000
2016-11-23 01:17:48,0.03,0.41,0.00,22.01,26.80,30.39,14.78,48.82,1023.94,2029.99,3337.65,3036.67,3426.81,600.16,602.43,10.35,0000 0000 0000 0000 000000
2016-11-23 01:22:49,0.02,0.41,0.00,22.01,26.80,30.40,14.75,48.85,1023.94,2029.99,3336.95,3036.04,3426.09,600.29,602.79,10.40,0000 0000 0000 0000 000000
2016-11-23 01:27:50,0.02,0.41,0.00,22.04,26.80,30.40,14.70,48.80,1023.94,2029.99,3336.11,3035.96,3425.80,599.87,602.02,10.45,0000 0000 0000 0000 000000
2016-11-23 01:32:52,0.05,0.41,0.00,22.04,26.80,30.42,14.71,48.61,1023.94,2029.99,3335.30,3035.22,3425.07,599.78,602.06,10.50,0000 0000 0000 0000 000000
2016-11-23 01:37:53,0.02,0.42,0.00,22.02,26.81,30.42,14.79,48.98,1023.92,2029.99,3334.67,3034.99,3424.74,600.16,602.29,10.55,0000 0000 0000 0000 000000
2016-11-23 01:42:54,0.03,0.42,0.00,22.02,26.82,30.40,14.75,48.81,1023.91,2029.99,3333.99,3034.53,3424.05,599.98,602.21,10.60,0000 0000 0000 0000 000000
2016-11-23 01:47:56,0.03,0.42,0.00,22.04,26.82,30.41,14.81,48.81,1023.83,2029.99,3333.20,3034.01,3423.67,600.07,602.26,10.65,0000 0000 0000 0000 000000
2016-11-23 01:52:57,0.04,0.42,0.00,22.01,26.82,30.43,14.71,48.95,1023.87,2029.99,3332.53,3033.60,3422.89,599.98,602.29,10.70,0000 0000 0000 0000 000000
2016-11-23 01:57:58,0.02,0.42,0.00,22.01,26.82,30.42,14.69,48.88,1023.80,2029.98,3331.98,3033.02,3422.07,600.09,602.36,10.75,0000 0000 0000 0000 000000
2016-11-23 02:03:00,0.03,0.42,0.00,22.03,26.82,30.41,14.71,48.88,1023.81,2029.97,3331.19,3032.82,3421.50,599.81,601.96,10.81,0000 0000 0000 0000 000000
2016-11-23 02:08:00,0.36,0.43,0.00,22.03,26.82,30.43,14.81,48.93,1023.84,2029.97,3326.07,3029.71,3418.31,600.07,602.38,10.86,0000 0000 0000 0000 000000
2016-11-23 02:13:02,0.42,0.46,0.00,22.02,26.83,30.44,14.71,49.02,1023.90,2029.95,3312.74,3022.49,3410.01,599.91,602.20,10.91,0000 0000 0000 0000 000000
2016-11-23 02:18:03,0.04,0.47,0.00,22.04,26.83,30.42,14.75,48.90,1023.88,2029.92,3310.85,3021.12,3408.80,599.86,602.06,10.96,0000 0000 0000 0000 000000
2016-11-23 02:23:05,0.02,0.47,0.00,22.04,26.84,30.44,14.77,48.86,1023.88,2029.90,3309.97,3020.92,3408.05,599.93,602.12,11.01,0000 0000 0000 0000 000000
2016-11-23 02:28:06,0.05,0.47,0.00,21.99,26.85,30.46,14.71,48.31,1023.83,2029.92,3309.08,3020.21,3407.60,600.03,602.29,11.06,0000 0000 0000 0000 000000
2016-11-23 02:33:07,0.02,0.47,0.00,22.00,26.85,30.46,14.69,48.52,1023.80,2029.89,3308.21,3019.95,3407.00,600.23,602.52,11.11,0000 0000 0000 0000 000000
2016-11-23 02:38:08,0.05,0.47,0.00,22.03,26.85,30.45,14.76,48.76,1023.90,2029.95,3307.44,3019.29,3406.45,600.04,602.30,11.16,0000 0000 0000 0000 000000
2016-11-23 02:43:09,0.00,0.47,0.00,22.00,26.85,30.47,14.75,48.74,1023.93,2029.80,3306.91,3018.98,3405.72,600.26,602.48,11.21,0000 0000 0000 0000 000000
2016-11-23 02:48:10,0.04,0.48,0.00,21.97,26.84,30.48,14.69,48.58,1023.90,2029.75,3306.10,3018.46,3405.03,599.97,602.36,11.26,0000 0000 0000 0000 000000
2016-11-23 02:53:12,0.02,0.48,0.00,22.01,26.84,30.43,14.75,48.45,1023.87,2029.79,3305.59,3018.02,3404.75,600.17,602.46,11.31,0000 0000 0000 0000 000000
2016-11-23 02:58:13,0.02,0.48,0.00,21.99,26.85,30.47,14.79,48.05,1023.88,2029.87,3304.99,3017.95,3404.04,600.09,602.45,11.36,0000 0000 0000 0000 000000
2016-11-23 03:03:14,0.04,0.48,0.00,21.96,26.85,30.47,14.82,48.38,1023.86,2029.86,3304.22,3017.23,3403.81,600.42,602.75,11.41,0000 0000 0000 0000 000000
2016-11-23 03:08:16,-0.00,0.48,0.00,21.99,26.85,30.45,14.73,48.35,1023.88,2029.74,3303.70,3017.00,3403.05,599.88,602.29,11.46,0000 0000 0000 0000 000000
2016-11-23 03:13:17,0.03,0.48,0.00,21.97,26.84,30.46,14.78,48.38,1023.90,2029.58,3303.01,3016.60,3402.49,599.97,602.40,11.51,0000 0000 0000 0000 000000
2016-11-23 03:18:18,0.01,0.48,0.00,21.94,26.83,30.48,14.77,48.60,1023.89,2029.41,3302.24,3016.03,3402.00,600.12,602.57,11.56,0000 0000 0000 0000 000000
2016-11-23 03:23:19,0.02,0.48,0.00,21.96,26.82,30.46,14.72,48.48,1023.92,2029.22,3301.78,3015.91,3401.23,599.75,602.23,11.61,0000 0000 0000 0000 000000
2016-11-23 03:28:20,0.03,0.48,0.00,21.93,26.82,30.46,14.74,48.67,1023.87,2029.21,3300.80,3015.13,3400.86,599.78,602.09,11.66,0000 0000 0000 0000 000000
2016-11-23 03:33:22,0.02,0.49,0.00,21.90,26.82,30.48,14.68,48.48,1023.67,2029.26,3300.02,3014.98,3400.15,599.62,602.05,11.71,0000 0000 0000 0000 000000
2016-11-23 03:38:23,0.04,0.49,0.00,21.91,26.82,30.45,14.72,48.52,1023.60,2029.28,3299.32,3014.30,3399.85,600.11,602.51,11.76,0000 0000 0000 0000 000000
2016-11-23 03:43:24,0.04,0.49,0.00,21.91,26.82,30.44,14.71,48.69,1023.69,2029.34,3298.73,3014.00,3399.08,599.81,602.22,11.81,0000 0000 0000 0000 000000
2016-11-23 03:48:25,0.01,0.49,0.00,21.91,26.82,30.43,14.73,48.70,1023.78,2029.42,3298.01,3013.85,3398.98,600.29,602.75,11.86,0000 0000 0000 0000 000000
2016-11-23 03:53:26,0.05,0.49,0.00,21.91,26.80,30.41,14.71,48.65,1023.77,2029.46,3297.24,3013.11,3398.19,599.79,602.35,11.91,0000 0000 0000 0000 000000
2016-11-23 03:58:28,0.03,0.50,0.00,21.90,26.80,30.41,14.77,48.84,1023.58,2029.69,3296.65,3012.98,3397.98,599.97,602.33,11.96,0000 0000 0000 0000 000000
2016-11-23 04:03:29,0.05,0.50,0.00,21.88,26.80,30.44,14.74,48.78,1023.67,2029.74,3296.01,3012.55,3397.23,600.25,602.65,12.01,0000 0000 0000 0000 000000
2016-11-23 04:08:31,0.02,0.50,0.00,21.87,26.80,30.44,14.69,48.81,1023.75,2029.82,3295.33,3012.02,3396.97,599.78,602.30,12.06,0000 0000 0000 0000 000000
2016-11-23 04:13:32,0.03,0.50,0.00,21.88,26.80,30.40,14.69,48.56,1023.83,2029.91,3294.83,3011.98,3396.36,599.59,602.13,12.11,0000 0000 0000 0000 000000
2016-11-23 04:18:33,0.03,0.50,0.00,21.87,26.79,30.41,14.75,48.68,1023.86,2029.92,3294.08,3011.51,3396.00,600.22,602.80,12.16,0000 0000 0000 0000 000000
2016-11-23 04:23:35,0.03,0.50,0.00,21.86,26.78,30.42,14.65,48.77,1023.89,2029.95,3293.50,3011.03,3395.59,599.39,602.14,12.21,0000 0000 0000 0000 000000
2016-11-23 04:28:36,0.01,0.51,0.00,21.88,26.77,30.38,14.82,49.03,1023.91,2029.92,3292.89,3010.93,3395.01,599.86,602.51,12.26,0000 0000 0000 0000 000000
2016-11-23 04:33:37,0.04,0.51,0.00,21.84,26.77,30.38,14.72,48.88,1023.90,2029.88,3292.09,3010.19,3394.45,599.96,602.62,12.31,0000 0000 0000 0000 000000
2016-11-23 04:38:39,0.01,0.51,0.00,21.83,26.77,30.39,14.83,48.94,1023.94,2029.83,3291.58,3009.99,3393.97,600.47,603.04,12.36,0000 0000 0000 0000 000000
2016-11-23 04:43:40,0.03,0.51,0.00,21.85,26.77,30.37,14.73,48.97,1023.94,2029.89,3291.02,3009.72,3393.21,600.00,602.68,12.41,0000 0000 0000 0000 000000
2016-11-23 04:48:42,0.01,0.51,0.00,21.83,26.76,30.37,14.75,48.95,1023.94,2029.76,3290.53,3009.06,3392.97,599.71,602.41,12.46,0000 0000 0000 0000 000000
2016-11-23 04:53:43,0.04,0.51,0.00,21.83,26.75,30.36,14.74,48.96,1023.94,2029.78,3289.79,3008.98,3392.22,599.72,602.42,12.51,0000 0000 0000 0000 000000
2016-11-23 04:58:44,0.02,0.51,0.00,21.82,26.75,30.33,14.76,48.89,1023.93,2029.96,3289.04,3008.74,3392.00,600.17,602.90,12.56,0000 0000 0000 0000 000000
2016-11-23 05:03:45,0.03,0.52,0.00,21.83,26.75,30.33,14.76,48.90,1023.94,2029.93,3288.31,3008.05,3391.68,600.05,602.76,12.61,0000 0000 0000 0000 000000
2016-11-23 05:08:47,0.01,0.52,0.00,21.79,26.73,30.34,14.73,48.95,1023.89,2029.97,3287.89,3007.98,3391.04,599.85,602.61,12.66,0000 0000 0000 0000 000000
2016-11-23 05:13:48,0.03,0.52,0.00,21.81,26.72,30.31,14.77,48.97,1023.87,2029.98,3287.06,3007.59,3390.96,600.01,602.66,12.71,0000 0000 0000 0000 000000
2016-11-23 05:18:49,0.03,0.52,0.00,21.83,26.72,30.32,14.80,49.06,1023.87,2029.98,3286.62,3007.02,3390.12,600.15,602.77,12.76,0000 0000 0000 0000 000000
2016-11-23 05:23:51,0.01,0.52,0.00,21.77,26.71,30.32,14.81,48.98,1023.86,2029.99,3286.03,3007.00,3389.83,600.07,602.87,12.81,0000 0000 0000 0000 000000
2016-11-23 05:28:52,0.02,0.52,0.00,21.75,26.70,30.31,14.68,48.86,1023.79,2029.98,3285.51,3006.91,3389.11,599.66,602.44,12.86,0000 0000 0000 0000 000000
2016-11-23 05:33:53,0.02,0.52,0.00,21.74,26.70,30.32,14.74,48.94,1023.77,2029.98,3284.99,3006.20,3388.99,599.76,602.52,12.91,0000 0000 0000 0000 000000
2016-11-23 05:38:54,0.03,0.52,0.00,21.72,26.67,30.31,14.72,48.92,1023.88,2029.98,3284.29,3006.00,3388.30,599.84,602.73,12.96,0000 0000 0000 0000 000000
2016-11-23 05:43:55,0.00,0.53,0.00,21.71,26.67,30.27,14.76,48.89,1023.91,2029.98,3283.98,3005.96,3388.00,599.79,602.72,13.01,0000 0000 0000 0000 000000
2016-11-23 05:48:56,0.04,0.53,0.00,21.72,26.65,30.24,14.68,48.90,1023.85,2029.99,3283.36,3005.41,3387.61,599.72,602.63,13.06,0000 0000 0000 0000 000000
2016-11-23 05:53:57,0.02,0.53,0.00,21.72,26.65,30.23,14.72,48.98,1023.82,2029.99,3282.75,3005.01,3387.03,599.95,602.79,13.12,0000 0000 0000 0000 000000
2016-11-23 05:58:58,0.02,0.53,0.00,21.69,26.63,30.24,14.76,48.93,1023.71,2029.99,3282.02,3004.85,3386.85,599.91,602.68,13.17,0000 0000 0000 0000 000000
2016-11-23 06:03:59,0.04,0.53,0.00,21.72,26.62,30.24,14.79,49.03,1023.65,2029.99,3281.43,3004.21,3386.15,599.95,602.72,13.22,0000 0000 0000 0000 000000
2016-11-23 06:09:01,0.01,0.53,0.00,21.70,26.62,30.21,14.77,48.80,1023.55,2029.99,3280.89,3004.00,3385.99,599.91,602.75,13.27,0000 0000 0000 0000 000000
2016-11-23 06:14:02,0.01,0.53,0.00,21.69,26.60,30.21,14.73,48.94,1023.61,2030.01,3280.07,3003.98,3385.90,599.87,602.67,13.32,0000 0000 0000 0000 000000
2016-11-23 06:19:03,0.04,0.53,0.00,21.67,26.60,30.21,14.78,49.05,1023.66,2030.03,3279.63,3003.62,3385.10,600.12,603.01,13.37,0000 0000 0000 0000 000000
2016-11-23 06:24:05,0.02,0.54,0.00,21.66,26.58,30.19,14.77,48.97,1023.77,2030.05,3279.01,3003.07,3384.97,599.87,602.63,13.42,0000 0000 0000 0000 000000
2016-11-23 06:29:06,0.02,0.54,0.00,21.64,26.57,30.17,14.78,47.59,1023.81,2030.16,3278.97,3003.00,3384.21,599.45,602.40,13.47,0000 0000 0000 0000 000000
2016-11-23 06:34:07,0.02,0.54,0.00,21.63,26.57,30.21,14.76,47.23,1023.79,2030.20,3278.21,3002.95,3383.99,599.89,602.89,13.52,0000 0000 0000 0000 000000
2016-11-23 06:39:09,0.03,0.54,0.00,21.63,26.56,30.22,14.75,47.30,1023.74,2030.13,3277.66,3002.27,3383.47,599.82,602.79,13.57,0000 0000 0000 0000 000000
2016-11-23 06:44:10,0.02,0.54,0.00,21.61,26.55,30.22,14.75,47.33,1023.68,2030.18,3277.00,3002.00,3383.01,600.34,603.38,13.62,0000 0000 0000 0000 000000
2016-11-23 06:49:11,0.04,0.54,0.00,21.59,26.55,30.26,14.77,47.27,1023.64,2030.34,3276.21,3001.97,3382.92,600.71,603.66,13.67,0000 0000 0000 0000 000000
2016-11-23 06:54:13,0.04,0.54,0.00,21.58,26.55,30.23,14.83,47.39,1023.85,2030.40,3275.89,3001.31,3382.13,600.38,603.52,13.72,0000 0000 0000 0000 000000
2016-11-23 06:59:14,0.02,0.55,0.00,21.55,26.55,30.22,14.83,47.45,1023.90,2030.38,3275.12,3001.01,3381.77,600.20,603.40,13.77,0000 0000 0000 0000 000000
2016-11-23 07:04:15,-0.00,0.55,0.00,21.54,26.55,30.23,14.78,47.35,1023.88,2030.23,3274.87,3000.87,3381.04,599.89,603.23,13.82,0000 0000 0000 0000 000000
2016-11-23 07:09:17,0.03,0.55,0.00,21.52,26.53,30.22,14.80,47.39,1023.77,2030.19,3274.06,3000.21,3380.85,600.04,603.28,13.87,0000 0000 0000 0000 000000
2016-11-23 07:14:18,0.02,0.55,0.00,21.51,26.52,30.18,14.79,47.44,1023.65,2030.21,3273.65,3000.00,3380.09,600.12,603.31,13.92,0000 0000 0000 0000 000000
2016-11-23 07:19:19,0.03,0.55,0.00,21.50,26.52,30.22,14.79,47.52,1023.55,2030.36,3273.02,2999.99,3379.98,600.08,603.23,13.97,0000 0000 0000 0000 000000
2016-11-23 07:24:20,0.03,0.55,0.00,21.50,26.51,30.19,14.70,47.51,1023.54,2030.37,3272.46,2999.60,3379.51,599.59,602.71,14.02,0000 0000 0000 0000 000000
2016-11-23 07:29:22,0.03,0.55,0.00,21.50,26.50,30.14,14.76,47.54,1023.62,2030.48,3271.96,2999.04,3379.01,600.09,603.30,14.07,0000 0000 0000 0000 000000
2016-11-23 07:34:23,0.05,0.56,0.00,21.47,26.50,30.15,14.74,47.59,1023.52,2030.70,3271.25,2999.00,3378.88,599.88,603.07,14.12,0000 0000 0000 0000 000000
2016-11-23 07:39:24,0.02,0.56,0.00,21.48,26.48,30.15,14.72,47.50,1023.55,2030.70,3270.99,2998.76,3378.09,599.75,602.95,14.17,0000 0000 0000 0000 000000
2016-11-23 07:44:25,0.04,0.56,0.00,21.45,26.47,30.11,14.74,47.62,1023.59,2030.87,3270.35,2998.13,3377.99,599.77,603.11,14.22,0000 0000 0000 0000 000000
2016-11-23 07:49:27,0.02,0.56,0.00,21.45,26.47,30.10,14.79,47.60,1023.64,2030.93,3269.75,2998.00,3377.54,600.37,603.70,14.27,0000 0000 0000 0000 000000
2016-11-23 07:54:28,0.02,0.56,0.00,21.45,26.46,30.06,14.79,47.69,1023.79,2030.92,3269.03,2997.94,3377.02,600.05,603.46,14.32,0000 0000 0000 0000 000000
2016-11-23 07:59:29,0.03,0.56,0.00,21.44,26.45,30.10,14.86,47.70,1023.58,2030.96,3268.93,2997.41,3376.76,600.21,603.39,14.37,0000 0000 0000 0000 000000
2016-11-23 08:04:31,0.02,0.56,0.00,21.43,26.45,30.13,14.81,47.74,1023.59,2030.95,3268.12,2997.01,3376.10,600.05,603.38,14.42,0000 0000 0000 0000 000000
2016-11-23 08:09:32,0.02,0.56,0.00,21.41,26.45,30.11,14.75,47.90,1023.77,2030.96,3267.49,2996.99,3376.00,600.04,603.52,14.47,0000 0000 0000 0000 000000
2016-11-23 08:14:34,0.02,0.57,0.00,21.42,26.43,30.06,14.82,48.00,1023.81,2030.99,3267.00,2996.74,3375.70,599.94,603.40,14.52,0000 0000 0000 0000 000000
2016-11-23 08:19:35,0.03,0.57,0.00,21.40,26.42,30.05,14.77,47.97,1023.67,2030.99,3266.41,2996.10,3375.07,600.27,603.66,14.57,0000 0000 0000 0000 000000
2016-11-23 08:24:37,0.00,0.57,0.00,21.41,26.42,30.06,14.78,48.17,1023.51,2030.97,3266.00,2995.99,3374.90,600.02,603.38,14.62,0000 0000 0000 0000 000000
2016-11-23 08:29:38,0.03,0.57,0.00,21.39,26.41,30.05,14.79,48.13,1023.49,2030.98,3265.52,2995.94,3374.24,600.27,603.60,14.67,0000 0000 0000 0000 000000
2016-11-23 08:34:39,0.02,0.57,0.00,21.39,26.40,30.01,14.82,48.11,1023.50,2030.99,3265.01,2995.51,3374.00,600.01,603.32,14.72,0000 0000 0000 0000 000000
2016-11-23 08:39:40,0.02,0.57,0.00,21.37,26.40,30.04,14.76,48.08,1023.48,2030.99,3264.69,2995.05,3373.87,599.68,603.13,14.77,0000 0000 0000 0000 000000
2016-11-23 08:44:42,0.01,0.57,0.00,21.37,26.38,30.06,14.76,48.25,1023.46,2030.99,3264.02,2994.99,3373.18,599.66,603.02,14.82,0000 0000 0000 0000 000000
2016-11-23 08:49:43,0.01,0.57,0.00,21.39,26.37,29.99,14.84,48.14,1023.49,2030.99,3263.67,2994.94,3373.00,600.72,604.07,14.87,0000 0000 0000 0000 000000
2016-11-23 08:54:44,0.03,0.58,0.00,21.36,26.36,30.00,14.77,48.19,1023.51,2031.00,3263.00,2994.31,3372.95,600.13,603.68,14.92,0000 0000 0000 0000 000000
2016-11-23 08:59:45,0.03,0.58,0.00,21.32,26.35,30.01,14.76,48.37,1023.52,2031.05,3262.22,2994.02,3372.32,599.89,603.36,14.97,0000 0000 0000 0000 000000
2016-11-23 09:04:47,0.04,0.58,0.00,21.33,26.34,29.99,14.85,48.58,1023.63,2031.07,3261.48,2993.70,3371.79,600.57,604.13,15.02,0000 0000 0000 0000 000000
2016-11-23 09:09:48,0.02,0.58,0.00,21.31,26.32,29.95,14.76,48.53,1023.80,2031.06,3260.93,2993.05,3371.03,600.02,603.76,15.07,0000 0000 0000 0000 000000
2016-11-23 09:14:49,0.02,0.58,0.00,21.28,26.32,29.94,14.80,48.72,1023.82,2031.04,3260.15,2993.00,3370.74,599.93,603.59,15.12,0000 0000 0000 0000 000000
2016-11-23 09:19:50,0.02,0.58,0.00,21.29,26.30,29.90,14.73,48.55,1023.83,2031.14,3259.90,2992.86,3370.07,599.90,603.59,15.17,0000 0000 0000 0000 000000
2016-11-23 09:24:52,0.04,0.58,0.00,21.27,26.30,29.88,14.79,48.70,1023.83,2031.28,3259.08,2992.17,3369.97,599.98,603.72,15.22,0000 0000 0000 0000 000000
2016-11-23 09:29:53,0.03,0.59,0.00,21.28,26.28,29.88,14.81,48.88,1023.88,2031.32,3258.40,2992.00,3369.37,599.89,603.71,15.27,0000 0000 0000 0000 000000
2016-11-23 09:34:54,0.06,0.59,0.00,21.30,26.27,29.84,14.77,48.97,1023.85,2031.71,3257.79,2991.74,3368.92,599.83,603.63,15.32,0000 0000 0000 0000 000000
2016-11-23 09:39:55,0.05,0.59,0.00,21.30,26.26,29.86,14.81,48.83,1023.75,2031.72,3256.42,2990.98,3368.06,599.90,603.69,15.38,0000 0000 0000 0000 000000
2016-11-23 09:44:56,0.07,0.60,0.00,21.27,26.25,29.84,14.84,49.01,1023.53,2031.92,3255.14,2990.17,3367.29,600.09,603.67,15.43,0000 0000 0000 0000 000000
2016-11-23 09:49:58,0.07,0.60,0.00,21.25,26.25,29.84,14.80,48.89,1023.50,2031.94,3253.22,2989.15,3366.09,600.24,603.81,15.48,0000 0000 0000 0000 000000
2016-11-23 09:55:00,0.09,0.60,0.00,21.25,26.24,29.79,14.76,48.83,1023.48,2031.97,3251.16,2988.00,3364.81,599.96,603.65,15.53,0000 0000 0000 0000 000000
2016-11-23 10:00:01,0.08,0.61,0.00,21.23,26.22,29.83,14.82,48.97,1023.48,2031.97,3249.53,2986.81,3363.08,599.73,603.36,15.58,0000 0000 0000 0000 000000
2016-11-23 10:05:03,0.07,0.61,0.00,21.21,26.22,29.83,14.82,48.68,1023.48,2031.95,3247.83,2985.80,3361.79,600.13,603.83,15.63,0000 0000 0000 0000 000000
2016-11-23 10:10:04,0.04,0.62,0.00,21.23,26.21,29.81,14.70,48.78,1023.46,2031.96,3246.23,2985.01,3361.01,599.82,603.63,15.68,0000 0000 0000 0000 000000
2016-11-23 10:15:05,0.06,0.62,0.00,21.23,26.20,29.81,14.82,48.84,1023.46,2031.98,3244.82,2984.22,3360.20,600.10,603.75,15.73,0000 0000 0000 0000 000000
2016-11-23 10:20:06,0.05,0.62,0.00,21.21,26.19,29.83,14.80,48.85,1023.47,2031.98,3243.53,2983.64,3359.48,599.85,603.66,15.78,0000 0000 0000 0000 000000
2016-11-23 10:25:07,0.02,0.62,0.00,21.19,26.17,29.83,14.79,48.98,1023.49,2031.99,3242.60,2983.01,3358.98,600.14,603.89,15.83,0000 0000 0000 0000 000000
2016-11-23 10:30:08,0.03,0.62,0.00,21.19,26.17,29.78,14.81,48.87,1023.48,2031.99,3241.77,2982.73,3358.30,599.99,603.75,15.88,0000 0000 0000 0000 000000
2016-11-23 10:35:09,0.03,0.63,0.00,21.18,26.15,29.74,14.79,48.92,1023.52,2031.99,3240.87,2982.05,3357.86,600.24,604.12,15.93,0000 0000 0000 0000 000000
2016-11-23 10:40:10,0.07,0.63,0.00,21.15,26.15,29.79,14.76,48.88,1023.69,2031.99,3239.64,2981.23,3356.60,599.88,603.87,15.98,0000 0000 0000 0000 000000
2016-11-23 10:45:12,0.06,0.63,0.00,21.15,26.14,29.78,14.75,48.88,1023.80,2031.99,3238.13,2980.29,3355.41,600.07,604.08,16.03,0000 0000 0000 0000 000000
2016-11-23 10:50:13,0.06,0.64,0.00,21.18,26.12,29.75,14.79,48.87,1023.87,2031.99,3236.85,2979.56,3354.43,600.21,604.22,16.08,0000 0000 0000 0000 000000
2016-11-23 10:55:14,0.04,0.64,0.00,21.14,26.12,29.71,14.79,48.91,1023.90,2031.99,3235.63,2978.89,3353.64,599.70,603.89,16.13,0000 0000 0000 0000 000000
2016-11-23 11:00:15,0.06,0.64,0.00,21.14,26.12,29.73,14.81,48.88,1023.83,2032.00,3234.31,2978.04,3352.71,599.91,604.01,16.18,0000 0000 0000 0000 000000
2016-11-23 11:05:16,0.13,0.65,0.00,21.16,26.10,29.71,14.82,48.99,1023.62,2032.00,3232.14,2976.52,3350.92,600.16,603.99,16.23,0000 0000 0000 0000 000000
2016-11-23 11:10:17,0.30,0.66,0.00,21.12,26.10,29.73,14.84,48.80,1023.68,2032.00,3226.70,2972.60,3346.56,600.14,604.15,16.28,0000 0000 0000 0000 000000
2016-11-23 11:15:19,0.14,0.67,0.00,21.11,26.09,29.72,14.77,48.92,1023.62,2032.00,3222.87,2969.75,3343.35,599.88,604.00,16.33,0000 0000 0000 0000 000000
2016-11-23 11:20:20,0.08,0.67,0.00,21.11,26.07,29.71,14.82,49.03,1023.72,2032.00,3220.93,2968.56,3341.88,599.78,603.68,16.38,0000 0000 0000 0000 000000
2016-11-23 11:25:21,0.08,0.68,0.00,21.10,26.07,29.70,14.83,48.98,1023.71,2032.00,3219.03,2967.44,3340.64,600.41,604.52,16.43,0000 0000 0000 0000 000000
2016-11-23 11:30:22,0.08,0.68,0.00,21.06,26.06,29.67,14.87,49.06,1023.58,2032.01,3217.12,2966.23,3339.30,600.05,604.10,16.48,0000 0000 0000 0000 000000
2016-11-23 11:35:24,0.07,0.69,0.00,21.05,26.05,29.67,14.75,48.87,1023.49,2032.01,3215.52,2965.07,3337.91,599.76,603.89,16.53,0000 0000 0000 0000 000000
2016-11-23 11:40:25,0.08,0.69,0.00,21.07,26.04,29.66,14.83,49.19,1023.49,2032.01,3213.79,2964.08,3336.65,599.83,603.87,16.58,0000 0000 0000 0000 000000
2016-11-23 11:45:27,0.06,0.69,0.00,21.06,26.02,29.64,14.87,49.18,1023.48,2032.01,3212.49,2963.15,3335.62,600.20,604.22,16.63,0000 0000 0000 0000 000000
2016-11-23 11:50:28,0.07,0.70,0.00,21.03,26.01,29.63,14.78,49.02,1023.46,2032.02,3210.85,2962.18,3334.58,599.88,603.93,16.68,0000 0000 0000 0000 000000
2016-11-23 11:55:29,0.20,0.71,0.00,21.01,26.00,29.62,14.78,49.10,1023.46,2032.07,3206.15,2959.87,3331.82,599.64,603.62,16.73,0000 0000 0000 0000 000000
2016-11-23 12:00:31,0.10,0.71,0.00,21.05,25.98,29.59,14.85,48.98,1023.45,2032.09,3203.89,2958.43,3330.23,600.24,604.39,16.78,0000 0000 0000 0000 000000
2016-11-23 12:05:32,0.09,0.72,0.00,21.03,25.97,29.57,14.79,49.11,1023.46,2032.26,3202.12,2957.32,3328.93,600.14,604.19,16.83,0000 0000 0000 0000 000000
2016-11-23 12:10:33,0.08,0.72,0.00,21.02,25.95,29.56,14.77,49.12,1023.45,2032.26,3200.25,2956.15,3327.59,599.78,603.87,16.88,0000 0000 0000 0000 000000
2016-11-23 12:15:35,0.20,0.73,0.00,21.01,25.95,29.52,14.87,49.08,1023.45,2032.55,3196.79,2954.27,3325.64,600.31,604.35,16.93,0000 0000 0000 0000 000000
2016-11-23 12:20:36,0.16,0.74,0.00,20.99,25.92,29.58,14.76,49.08,1023.45,2032.80,3193.06,2952.16,3323.38,599.79,603.94,16.98,0000 0000 0000 0000 000000
2016-11-23 12:25:37,0.12,0.75,0.00,21.00,25.92,29.54,14.84,49.12,1023.45,2032.95,3190.30,2950.46,3321.51,599.85,603.98,17.03,0000 0000 0000 0000 000000
2016-11-23 12:30:39,0.17,0.75,0.00,21.00,25.91,29.52,14.78,49.13,1023.45,2032.97,3186.96,2948.25,3319.10,599.76,604.10,17.08,0000 0000 0000 0000 000000
2016-11-23 12:35:40,0.20,0.76,0.00,21.02,25.90,29.52,14.75,49.13,1023.45,2032.98,3182.98,2945.46,3315.88,599.63,603.63,17.13,0000 0000 0000 0000 000000
2016-11-23 12:40:41,0.17,0.77,0.00,20.96,25.90,29.51,14.79,49.14,1023.45,2032.98,3179.31,2942.96,3312.89,599.98,604.16,17.18,0000 0000 0000 0000 000000
2016-11-23 12:45:43,0.11,0.78,0.00,20.97,25.89,29.54,14.76,49.16,1023.45,2032.99,3176.71,2941.32,3310.89,599.86,604.00,17.23,0000 0000 0000 0000 000000
2016-11-23 12:50:44,0.14,0.79,0.00,20.97,25.87,29.54,14.77,49.17,1023.45,2032.99,3173.80,2939.52,3309.05,599.92,604.14,17.28,0000 0000 0000 0000 000000
2016-11-23 12:55:45,0.13,0.79,0.00,20.96,25.87,29.50,14.81,49.24,1023.44,2032.99,3170.92,2937.54,3306.79,599.92,604.12,17.33,0000 0000 0000 0000 000000